User: anonymous   Login
Location: Unspecified
(44.5899°N, 128.9834°E)
Time: 02:40:30
(UTC+08:00)
Language:

Resurs 01 Rocket - Orbit

View from above orbital plane
View from above orbital plane
View from above satellite
View from above satellite

Ground track
Ground track

The orbit data is extracted from the following two-line orbital elements,

1 23343U 94074B   17142.93117703 +.00000014 +00000-0 +95575-5 0  9996
2 23343 098.1553 179.7625 0007651 145.1741 273.2989 14.76698509212894
Epoch (UTC): 22 May 2017 22:20:53
Eccentricity: 0.0007651
inclination: 98.1553°
perigee height: 634 km
apogee height: 645 km
right ascension of ascending node: 179.7625°
argument of perigee: 145.1741°
revolutions per day: 14.76698509
mean anomaly at epoch: 273.2989°
orbit number at epoch: 21289

The dashed part of the orbit path shows where the satellite is in the earth's shadow,  

DLR